Погода в Кадакесе

Испания     42°17′19″N   3°16′37″E
темп.,
°C
ветер,
м/с
пор.,
м/с
влажн.,
%
обл.,
%
осадки,
мм/ч
давл.,
гПа
погр.,
м
25 февраля, чт
чт2501:00+12ююз711810 0.0 1032413
04:00+12ю710830 0.0 1030467
07:00+12ю69860 0.0 1030470
10:00+13ю610863 0.0 1031535
13:00+14ююв79761 0.0 1030327
16:00+13ююв79810 0.0 1030300
19:00+13ююв56860 0.0 1030225
22:00+12ю12883 0.0 1032117
26 февраля, пт
пт2601:00+12ссв23892 0.0 1031212
04:00+12с448942 0.0 1031284
07:00+11ссз238664 0.0 1031241
10:00+12ссз128395 0.0 1031263
13:00+13в117961 0.0 1030192
16:00+13юв227961 0.0 1028153
19:00+13ююз228281 0.0 102880
22:00+13зсз338379 0.0 102860
27 февраля, сб
сб2701:00+13сз357844 0.0 1028114
04:00+12ссз58790 0.0 1027233
07:00+12ссз610800 0.0 1026411
10:00+13сз47740 0.0 1027355
13:00+15с813530 0.0 1026469
16:00+15с1014630 0.0 1025471
19:00+14с586817 0.0 1025201
22:00+13ссз577365 0.0 1026287
28 февраля, вс
вс2801:00+13ссз467443 0.0 1026257
04:00+12с23764 0.0 1025194
07:00+11сз23772 0.0 1026147
10:00+12с34760 0.0 1026378
13:00+13св33751 0.0 1026296
16:00+13в357550 0.0 1025287
19:00+13всв347844 0.0 1024168
22:00+12с237882 0.0 1026128
1 марта, пн
пн101:00+12сз228263 0.0 102580
04:00+11зсз11840 0.0 102475
07:00+10з228112 0.0 102587
10:00+11юз127894 0.0 1026162
13:00+12ююв358579 0.0 1026362
16:00+13юв568419 0.0 1025344
19:00+13ююв468633 0.0 1026251
22:00+13ююв3387100 0.0 1028152